• In Deutschland
  • Länderverzeichnis
  • Für 7 Tage
  • Wassertemperatur
  • Satellitenkarten
  • Wetterkarte
  • Widgets
  • user-avatar
    Anmelden

    Stündliche Wetter Enkamp

    Heute, 26 September, Dienstag

    Zeit Temperatur Niederschläge Wind Luftdruck Luftfeuchtigkeit
    00:00 +7°C° 0,1 mm 1 m/S 627 mmHg 91%
    01:00 +7°C° 0,1 mm 1 m/S 627 mmHg 91%
    02:00 +7°C° 0,1 mm 1 m/S 626 mmHg 91%
    03:00 +6°C° 0,1 mm 1 m/S 626 mmHg 90%
    04:00 +6°C° 0 mm 1 m/S 626 mmHg 90%
    05:00 +5°C° 0 mm 1 m/S 626 mmHg 89%
    06:00 +5°C° 0 mm 1 m/S 626 mmHg 89%
    07:00 +7°C° 0 mm 1 m/S 627 mmHg 81%
    08:00 +10°C° 0 mm 1 m/S 628 mmHg 73%
    09:00 +12°C° 0 mm 1 m/S 629 mmHg 64%
    10:00 +13°C° 0 mm 1 m/S 629 mmHg 60%
    11:00 +14°C° 0 mm 1 m/S 629 mmHg 55%
    12:00 +15°C° 0 mm 1 m/S 630 mmHg 50%
    13:00 +15°C° 0,1 mm 1 m/S 629 mmHg 54%
    14:00 +14°C° 0,1 mm 2 m/S 629 mmHg 57%
    15:00 +14°C° 0,1 mm 2 m/S 629 mmHg 61%
    16:00 +12°C° 0,1 mm 1 m/S 628 mmHg 68%
    17:00 +11°C° 0,1 mm 1 m/S 628 mmHg 76%
    18:00 +8°C° 0,1 mm 0 m/S 627 mmHg 84%
    19:00 +9°C° 0 mm 1 m/S 627 mmHg 85%
    20:00 +9°C° 0 mm 1 m/S 627 mmHg 87%
    21:00 +9°C° 0 mm 1 m/S 628 mmHg 89%
    22:00 +8°C° 0 mm 1 m/S 627 mmHg 90%
    23:00 +8°C° 0 mm 1 m/S 627 mmHg 90%

    Morgen, 27 September, Mittwoch

    Zeit Temperatur Niederschläge Wind Luftdruck Luftfeuchtigkeit
    00:00 +8°C° 0 mm 1 m/S 627 mmHg 91%
    01:00 +8°C° 0 mm 1 m/S 627 mmHg 91%
    02:00 +8°C° 0 mm 1 m/S 627 mmHg 91%
    03:00 +8°C° 0 mm 1 m/S 627 mmHg 90%
    04:00 +7°C° 0 mm 1 m/S 627 mmHg 90%
    05:00 +7°C° 0 mm 1 m/S 626 mmHg 90%
    06:00 +7°C° 0 mm 1 m/S 626 mmHg 90%
    07:00 +9°C° 0 mm 1 m/S 627 mmHg 81%
    08:00 +11°C° 0 mm 1 m/S 628 mmHg 72%
    09:00 +14°C° 0 mm 2 m/S 630 mmHg 63%
    10:00 +15°C° 0 mm 2 m/S 630 mmHg 59%
    11:00 +16°C° 0 mm 2 m/S 630 mmHg 54%
    12:00 +17°C° 0 mm 3 m/S 630 mmHg 50%
    13:00 +17°C° 0 mm 3 m/S 630 mmHg 52%
    14:00 +16°C° 0 mm 3 m/S 630 mmHg 53%
    15:00 +16°C° 0 mm 3 m/S 630 mmHg 55%
    16:00 +14°C° 0 mm 2 m/S 629 mmHg 64%
    17:00 +13°C° 0 mm 2 m/S 629 mmHg 72%
    18:00 +11°C° 0 mm 1 m/S 628 mmHg 80%
    19:00 +10°C° 0 mm 1 m/S 628 mmHg 83%
    20:00 +9°C° 0 mm 1 m/S 628 mmHg 85%
    21:00 +9°C° 0 mm 1 m/S 628 mmHg 87%
    22:00 +9°C° 0 mm 1 m/S 628 mmHg 87%
    23:00 +9°C° 0 mm 1 m/S 628 mmHg 86%

    übermorgen, 28 September, Donnerstag

    Zeit Temperatur Niederschläge Wind Luftdruck Luftfeuchtigkeit
    00:00 +8°C° 0 mm 1 m/S 628 mmHg 86%
    01:00 +8°C° 0 mm 1 m/S 628 mmHg 85%
    02:00 +8°C° 0 mm 1 m/S 628 mmHg 85%
    03:00 +8°C° 0 mm 1 m/S 628 mmHg 84%
    04:00 +8°C° 0 mm 1 m/S 628 mmHg 84%
    05:00 +8°C° 0 mm 1 m/S 628 mmHg 83%
    06:00 +8°C° 0 mm 1 m/S 629 mmHg 83%
    07:00 +10°C° 0 mm 1 m/S 630 mmHg 73%
    08:00 +13°C° 0 mm 1 m/S 631 mmHg 64%
    09:00 +16°C° 0 mm 1 m/S 632 mmHg 54%
    10:00 +18°C° 0 mm 1 m/S 632 mmHg 52%
    11:00 +17°C° 0 mm 2 m/S 633 mmHg 49%
    12:00 +18°C° 0 mm 2 m/S 633 mmHg 47%
    13:00 +18°C° 0 mm 2 m/S 632 mmHg 50%
    14:00 +17°C° 0 mm 2 m/S 632 mmHg 53%
    15:00 +17°C° 0 mm 2 m/S 631 mmHg 56%
    16:00 +15°C° 0 mm 2 m/S 631 mmHg 63%
    17:00 +14°C° 0 mm 2 m/S 630 mmHg 71%
    18:00 +12°C° 0 mm 1 m/S 630 mmHg 78%
    19:00 +12°C° 0 mm 1 m/S 630 mmHg 81%
    20:00 +11°C° 0 mm 1 m/S 630 mmHg 83%
    21:00 +10°C° 0 mm 1 m/S 630 mmHg 86%
    22:00 +10°C° 0 mm 1 m/S 629 mmHg 86%
    23:00 +10°C° 0 mm 1 m/S 629 mmHg 86%

    29 September, Freitag

    Zeit Temperatur Niederschläge Wind Luftdruck Luftfeuchtigkeit
    00:00 +10°C° 0 mm 1 m/S 629 mmHg 87%
    01:00 +10°C° 0 mm 1 m/S 629 mmHg 86%
    02:00 +9°C° 0 mm 1 m/S 628 mmHg 86%
    03:00 +9°C° 0 mm 1 m/S 628 mmHg 86%
    04:00 +9°C° 0 mm 1 m/S 628 mmHg 85%
    05:00 +9°C° 0 mm 1 m/S 628 mmHg 84%
    06:00 +9°C° 0 mm 1 m/S 628 mmHg 83%
    07:00 +12°C° 0 mm 1 m/S 629 mmHg 74%
    08:00 +14°C° 0 mm 1 m/S 630 mmHg 64%
    09:00 +16°C° 0 mm 1 m/S 631 mmHg 54%
    10:00 +18°C° 0,1 mm 1 m/S 631 mmHg 52%
    11:00 +19°C° 0,1 mm 1 m/S 631 mmHg 50%
    12:00 +19°C° 0,1 mm 2 m/S 632 mmHg 48%
    13:00 +18°C° 0,4 mm 2 m/S 631 mmHg 52%
    14:00 +18°C° 0,4 mm 2 m/S 630 mmHg 56%
    15:00 +18°C° 0,4 mm 1 m/S 630 mmHg 60%
    16:00 +16°C° 0,4 mm 1 m/S 630 mmHg 66%
    17:00 +14°C° 0,4 mm 1 m/S 629 mmHg 72%
    18:00 +13°C° 0,4 mm 1 m/S 629 mmHg 79%
    19:00 +12°C° 0,2 mm 1 m/S 629 mmHg 81%
    20:00 +12°C° 0,2 mm 1 m/S 629 mmHg 84%
    21:00 +10°C° 0,2 mm 0 m/S 629 mmHg 86%
    22:00 +10°C° 0,1 mm 0 m/S 629 mmHg 87%
    23:00 +9°C° 0,1 mm 0 m/S 628 mmHg 89%

    30 September, Samstag

    Zeit Temperatur Niederschläge Wind Luftdruck Luftfeuchtigkeit
    00:00 +9°C° 0,1 mm 0 m/S 628 mmHg 90%
    01:00 +9°C° 0,1 mm 0 m/S 628 mmHg 91%
    02:00 +10°C° 0,1 mm 1 m/S 628 mmHg 91%
    03:00 +9°C° 0,1 mm 1 m/S 627 mmHg 92%
    04:00 +9°C° 0,1 mm 1 m/S 627 mmHg 92%
    05:00 +9°C° 0,1 mm 1 m/S 627 mmHg 93%
    06:00 +9°C° 0,1 mm 1 m/S 627 mmHg 93%
    07:00 +10°C° 0,4 mm 1 m/S 628 mmHg 90%
    08:00 +11°C° 0,4 mm 1 m/S 628 mmHg 88%
    09:00 +11°C° 0,4 mm 1 m/S 629 mmHg 85%
    10:00 +11°C° 0,7 mm 1 m/S 628 mmHg 85%
    11:00 +11°C° 0,7 mm 1 m/S 628 mmHg 85%
    12:00 +11°C° 0,7 mm 1 m/S 628 mmHg 85%
    13:00 +11°C° 1,1 mm 1 m/S 628 mmHg 87%
    14:00 +10°C° 1,1 mm 1 m/S 627 mmHg 89%
    15:00 +10°C° 1,1 mm 1 m/S 627 mmHg 91%
    16:00 +10°C° 0,5 mm 1 m/S 627 mmHg 92%
    17:00 +9°C° 0,5 mm 1 m/S 627 mmHg 94%
    18:00 +9°C° 0,5 mm 1 m/S 627 mmHg 95%
    19:00 +9°C° 0,1 mm 1 m/S 627 mmHg 95%
    20:00 +8°C° 0,1 mm 1 m/S 627 mmHg 95%
    21:00 +8°C° 0,1 mm 1 m/S 627 mmHg 95%
    22:00 +8°C° 0,1 mm 1 m/S 627 mmHg 95%
    23:00 +8°C° 0,1 mm 1 m/S 627 mmHg 95%

    1 Oktober, Sonntag

    Zeit Temperatur Niederschläge Wind Luftdruck Luftfeuchtigkeit
    00:00 +8°C° 0,1 mm 1 m/S 626 mmHg 95%
    01:00 +7°C° 0,1 mm 1 m/S 626 mmHg 95%
    02:00 +7°C° 0,1 mm 1 m/S 626 mmHg 94%
    03:00 +6°C° 0,1 mm 2 m/S 626 mmHg 94%
    04:00 +6°C° 0,1 mm 2 m/S 626 mmHg 94%
    05:00 +5°C° 0,1 mm 2 m/S 626 mmHg 94%
    06:00 +5°C° 0,1 mm 2 m/S 626 mmHg 94%
    07:00 +6°C° 0 mm 2 m/S 626 mmHg 88%
    08:00 +8°C° 0 mm 2 m/S 627 mmHg 83%
    09:00 +9°C° 0 mm 2 m/S 627 mmHg 77%
    10:00 +10°C° 0 mm 2 m/S 627 mmHg 70%
    11:00 +12°C° 0 mm 2 m/S 628 mmHg 62%
    12:00 +14°C° 0 mm 2 m/S 628 mmHg 55%
    13:00 +14°C° 0 mm 2 m/S 628 mmHg 55%
    14:00 +13°C° 0 mm 2 m/S 627 mmHg 56%
    15:00 +13°C° 0 mm 2 m/S 627 mmHg 56%
    16:00 +12°C° 0 mm 2 m/S 627 mmHg 63%
    17:00 +10°C° 0 mm 1 m/S 626 mmHg 70%
    18:00 +9°C° 0 mm 1 m/S 625 mmHg 77%
    19:00 +9°C° 0 mm 1 m/S 625 mmHg 77%
    20:00 +8°C° 0 mm 1 m/S 625 mmHg 76%
    21:00 +8°C° 0 mm 1 m/S 625 mmHg 76%
    22:00 +8°C° 0 mm 1 m/S 625 mmHg 74%
    23:00 +8°C° 0 mm 1 m/S 625 mmHg 73%
    Mehr zeigen